{"data":{"norad_id":57681,"intl_designator":"2023-124U","name":"STARLINK-30273","alt_names":[],"object_type":"PAYLOAD","status":"ACTIVE","operator":null,"country":"US","launch_date":"2023-08-22","launch_site_code":"AFWTR","launch_vehicle":null,"mission":null,"orbit_class":"UNKNOWN","rcs_meters":null,"size_class":null,"mass_kg":null,"dimensions":null,"purposes":["comms"],"wikipedia_slug":null,"has_3d_model":false,"image_url":null,"decayed_at":null,"tle_current":{"epoch":"2026-09-20T14:14:42.094464Z","epoch_age_seconds":123628,"freshness":"FRESH","line1":"1 57681U 23124U   26263.59354276  .00047433  00000+0  12370-2 0  9994","line2":"2 57681  53.1561  18.6932 0003695 315.0981  44.9724 15.38387767173443","mean_motion":15.38387767,"eccentricity":0.0003695,"inclination_deg":53.1561,"raan_deg":18.6932,"arg_perigee_deg":315.0981,"mean_anomaly_deg":44.9724,"bstar":0.001237,"rev_number":17344,"period_min":93.604488470949,"perigee_km":448.35304631333,"apogee_km":453.39968719136,"semimajor_km":6829.0133667523,"source":"CELESTRAK","updated_at":"2026-09-21T09:00:33.673133Z"}}}